Regional Weather Roundup
Issued by NWS

Home | Current Version | Previous Version | Text Only | Print | Product List | Glossary Off
Versions: 1 2 3 4 5 6 7 8 9 10 11 12 13 14 15 16 17 18 19 20 21 22 23 24 25 26 27 28 29 30 31 32 33 34 35 36 37 38 39 40 41 42 43 44 45 46 47 48 49 50

000
ASUS45 KBOI 281310
RWRID
WEATHER ROUNDUP FOR IDAHO
NATIONAL WEATHER SERVICE BOISE ID
700 AM MDT MON JUL 28 2014

NOTE: "FAIR" INDICATES FEW OR NO CLOUDS BELOW 12000 FEET
WITH NO SIGNIFICANT WEATHER AND/OR OBSTRUCTIONS TO VISIBILITY

IDZ012-014-281400-
SOUTHWEST IDAHO


CITY           SKY/WX    TMP DP  RH WIND       PRES   REMARKS
BOISE          MOCLDY    70  43  37 SW3       30.04R
CALDWELL       MOCLDY    66  43  42 W7        30.05S
MOUNTAIN HOME  CLOUDY    78  39  25 NW9       30.05R
$$

IDZ016-017-281400-
SOUTHCENTRAL IDAHO


CITY           SKY/WX    TMP DP  RH WIND       PRES   REMARKS
BURLEY         CLOUDY    64  50  60 E3        30.13R
JEROME         CLOUDY    71  46  40 NE8       30.13R
TWIN FALLS     CLOUDY    77  39  25 S10       30.12R
$$

IDZ019>023-281400-
SOUTHEAST IDAHO


CITY           SKY/WX    TMP DP  RH WIND       PRES   REMARKS
IDAHO FALLS    MOCLDY    54  45  71 N6        30.21R
POCATELLO      CLEAR     57  41  55 W6        30.18R
REXBURG        MOCLDY    53  44  71 NE5       30.23S
$$

IDZ006-010-011-018-031-032-281400-
CENTRAL IDAHO MOUNTAINS


CITY           SKY/WX    TMP DP  RH WIND       PRES   REMARKS
MCCALL         PTCLDY    56  37  49 N5        30.21S
HAILEY         CLOUDY    68  39  34 W7        30.26R
STANLEY          N/A     53  36  52 CALM      30.36S
SALMON         MOCLDY    52  43  71 CALM      30.23R
CHALLIS        CLOUDY    61  36  39 W5        30.26S
$$

IDZ002-004-006-007-026-281400-
NORTHERN IDAHO


CITY           SKY/WX    TMP DP  RH WIND       PRES   REMARKS
LEWISTON       CLOUDY    72  43  35 S3        30.07R
LOWELL           N/A     57  51  80 CALM      30.15R
COEUR D`ALENE  CLOUDY    63  48  59 E13       30.12F
MULLAN PASS    PTCLDY    66  36  32 CALM      30.34R
$$


USA.gov is the U.S. government's official web portal to all federal, state and local government web resources and services.